Location: East Arcadia
(34.1056°N, 118.0176°W)
Time: 01:21:20
(UTC+00:00)

Cosmos 2218 Rocket - Pass Details

Date: 01 April 2023
Orbit: 954 x 1007 km, 82.9° (Epoch: 08 June)

Event Time Altitude Azimuth Distance (km) Brightness Sun altitude
Rises 12:12:01 0° 187° (S) 3,678 6.8 -18.5°
Reaches altitude 10° 12:14:31 10° 188° (S) 2,741 6.1 -18.0°
Maximum altitude 12:20:49 83° 275° (W) 1,010 4.0 -16.8°
Drops below altitude 10° 12:27:15 10° 4° (N) 2,784 6.7 -15.5°
Sets 12:29:48 0° 6° (N) 3,740 7.4 -15.0°
